Forside
METAR-TAF:

METAR-TAF

Lufthavne :

Kobe, Japan

Breddekreds: 34-37-58N, længdekreds: 135-13-26E, højde: 7 m

Aktuelle vejr

Denne rapport blev lavet for 8 timer og 11 minutter siden, kl. 13:00 UTC
Vind 11 kt fra østnordøst
Temperatur 21°C
Fugtighed 94%
Tryk 1005 hPa
Sigt 10 km eller mere
Nogle få skyer i en højde af 800 ft
Spredte skyer i en højde af 2500 ft
Brudte skyer i en højde af 5000 ft
let regn

METAR: RJBE 131300Z 06011KT 9999 -RA FEW008 SCT025 BKN050 21/20 Q1005

Tid: 06:11 (21:11 UTC)


TAF: fraværende

Vejrobservationer og prognoser fra mere end 4000 lufthavne (METAR og TAF).

De gule og røde prikker repræsenterer de meteorologiske stationer.

Flyt musen over at se navnet på stationen.

Så klik over at se vejr observationer og prognoser.

At skifte det kort: Klik på de grønne knapper med et sort kors for at zoome ind; på den grønne knap med en bindestreg for at zoome ud; eller på de grønne pile for tilstødende kort.


METAR-TAF: